Skip Page Navigation
NASA JPL Caltech
NASA Logo - Jet Propulsion Laboratory + View the NASA Portal
+ Near-Earth Object (NEO) Program
Search JPL
JPL Home Earth Solar System Stars & Galaxies Technology
JPL Solar System Dynamics
BODIES ORBITS EPHEMERIDES TOOLS PHYSICAL DATA DISCOVERY FAQ SITE MAP
JPL Small-Body Database Browser
Search: [ help ]  
231937 (2001 FO32)
Classification: Apollo [NEO, PHA]          SPK-ID: 2231937
Ephemeris | Orbit Diagram | Orbital Elements | Physical Parameters | Discovery Circumstances | Close-Approach Data ]

[ hide orbit diagram ]
Orbit Diagram
Note: Make sure you have Java enabled on your browser to see the applet. This applet is provided as a 3D orbit visualization tool. The applet was implemented using 2-body methods, and hence should not be used for determining accurate long-term trajectories (over several years or decades) or planetary encounter circumstances. For accurate long-term ephemerides, please instead use our Horizons system.
Orbit Viewer

Additional Notes: the orbits shown in the applet are color coded. The planets are white lines, and the asteroid/comet is a blue line. The bright white line indicates the portion of the orbit that is above the ecliptic plane, and the darker portion is below the ecliptic plane. Likewise for the asteroid/comet orbit, the light blue indicates the portion above the ecliptic plane, and the dark blue the portion below the ecliptic plane.

Orbit Viewer applet originally written and kindly provided by Osamu Ajiki (AstroArts), and further modified by Ron Baalke (JPL).


Orbital Elements at Epoch 2456400.5 (2013-Apr-18.0) TDB
Reference: JPL 45 (heliocentric ecliptic J2000)
 Element Value Uncertainty (1-sigma)   Units 
e .826260366653398 1.5666e-07  
a 1.701233127776198 2.6157e-08 AU
q .2955716198569296 2.6523e-07 AU
i 38.91468678567662 5.7108e-05 deg
node 181.8890615541999 1.5369e-05 deg
peri 123.2006249991983 2.8637e-05 deg
M 135.3488064939734 4.3835e-05 deg
tp 2456095.783407481520
(2012-Jun-17.28340748)
9.1736e-05 JED
period 810.4834918624673
2.22
1.8692e-05
5.118e-08
d
yr
n .4441793122432766 1.0244e-08 deg/d
Q 3.106894635695467 4.7769e-08 AU
  Orbit Determination Parameters
   # obs. used (total)      166  
   data-arc span      4044 days (11.07 yr)  
   first obs. used      2001-03-23  
   last obs. used      2012-04-18  
   planetary ephem.      DE405  
   SB-pert. ephem.      SB405-CPV-2  
   condition code      0  
   fit RMS      .51395  
   data source      ORB  
   producer      Otto Matic  
   solution date      2013-Apr-29 15:40:49  

Additional Information
 Earth MOID = .00483417 AU 
 T_jup = 3.560 
[ show covariance matrix ]

Ephemeris | Orbit Diagram | Orbital Elements | Physical Parameters | Discovery Circumstances | Close-Approach Data ]

Physical Parameter Table
Parameter Symbol Value Units Sigma Reference Notes
absolute magnitude H 17.747 mag .88102 45 autocmod 2.5c

231937 (2001 FO32)          Discovered 2001-Mar-23 by LINEAR at Socorro (704)
Reference: 20100228/Numbers.arcLast Updated: 2010-03-03

[ show close-approach data ]
Ephemeris | Orbit Diagram | Orbital Elements | Physical Parameters | Discovery Circumstances | Close-Approach Data ]
ABOUT SSD CREDITS/AWARDS PRIVACY/COPYRIGHT GLOSSARY LINKS
FirstGov 2013-May-25 16:30 UT
(server date/time)  
NASA Home Page
Site Manager:   Donald K. Yeomans
Webmaster  Alan B. Chamberlin